Air Quality Table

TIMESTAMP NO2 SO2 O3 PM10 PM2.5 CO TEMP HUM AIRPRES WS WD NO BENZENE
2022-01-24 17:00 31.86 µg/m3 0.48 µg/m3 56.16 µg/m3 8.17 µg/m3 4.84 µg/m3 0.33 mg/m3 11.98 °C 68.23 % 1,023.60 mbar 2.15 m/s 177.23 Deg 18.76 µg/m3 1.87 µg/m3
2022-01-24 16:00 33 µg/m3 0.33 µg/m3 55.41 µg/m3 19.86 µg/m3 5.99 µg/m3 0.29 mg/m3 12.39 °C 62.63 % 1,023.58 mbar 2.1 m/s 304.42 Deg 10.6 µg/m3 1.24 µg/m3
2022-01-24 15:00 26.85 µg/m3 0.34 µg/m3 63.49 µg/m3 30.34 µg/m3 7.73 µg/m3 0.26 mg/m3 12.92 °C 57.97 % 1,023.32 mbar 2.73 m/s 303.07 Deg 7.01 µg/m3 1.23 µg/m3
2022-01-24 14:00 30.46 µg/m3 0.37 µg/m3 59.31 µg/m3 40.41 µg/m3 7.99 µg/m3 0.28 mg/m3 13.3 °C 57.59 % 1,023.55 mbar 2.18 m/s 303.48 Deg 10.1 µg/m3 1.24 µg/m3
2022-01-24 13:00 22.93 µg/m3 0.36 µg/m3 66.08 µg/m3 18.4 µg/m3 6.4 µg/m3 0.26 mg/m3 13.76 °C 52.39 % 1,024.17 mbar 2.68 m/s 301.47 Deg 7.34 µg/m3 1.03 µg/m3
2022-01-24 12:00 22.64 µg/m3 0.34 µg/m3 65.08 µg/m3 33.82 µg/m3 8.25 µg/m3 0.24 mg/m3 13.9 °C 50.19 % 1,024.88 mbar 2.53 m/s 304.73 Deg 8.98 µg/m3 1.05 µg/m3
2022-01-24 11:00 31.4 µg/m3 0.35 µg/m3 56.86 µg/m3 36.87 µg/m3 7.96 µg/m3 0.28 mg/m3 13.21 °C 55.61 % 1,025.26 mbar 2.1 m/s 307.95 Deg 10.47 µg/m3 1.99 µg/m3
2022-01-24 10:00 46.94 µg/m3 0.67 µg/m3 38.12 µg/m3 59.28 µg/m3 12.43 µg/m3 0.38 mg/m3 13.05 °C 53.92 % 1,025.13 mbar 1.78 m/s 274.53 Deg 24.03 µg/m3 3.76 µg/m3
2022-01-24 09:00 74.41 µg/m3 1.06 µg/m3 18.15 µg/m3 75.47 µg/m3 15.15 µg/m3 0.53 mg/m3 12.47 °C 51.82 % 1,024.91 mbar 1.18 m/s 264.33 Deg 49.87 µg/m3 5.3 µg/m3
2022-01-24 08:00 92.22 µg/m3 1.84 µg/m3 9.61 µg/m3 52.97 µg/m3 12.73 µg/m3 0.85 mg/m3 11.04 °C 56.25 % 1,024.80 mbar 1.1 m/s 260.88 Deg 96.14 µg/m3 3.73 µg/m3
2022-01-24 07:00 79.01 µg/m3 1.35 µg/m3 11.82 µg/m3 30.68 µg/m3 11 µg/m3 0.7 mg/m3 10.64 °C 59.9 % 1,024.66 mbar 1.03 m/s 270.87 Deg 58.92 µg/m3 7.24 µg/m3
2022-01-24 06:00 63.25 µg/m3 1.02 µg/m3 14.83 µg/m3 21.28 µg/m3 8.46 µg/m3 0.5 mg/m3 10.75 °C 55.86 % 1,024.61 mbar 1.04 m/s 263.77 Deg 45.71 µg/m3 2.38 µg/m3
2022-01-24 05:00 37.5 µg/m3 0.39 µg/m3 31.13 µg/m3 15.43 µg/m3 7.09 µg/m3 0.24 mg/m3 11.02 °C 56.37 % 1,024.84 mbar 0.73 m/s 278.27 Deg 6.71 µg/m3 2.2 µg/m3
2022-01-24 04:00 23.33 µg/m3 0.35 µg/m3 61.62 µg/m3 17.16 µg/m3 7.17 µg/m3 0.21 mg/m3 11.4 °C 54.16 % 1,025.06 mbar 0.67 m/s 252.83 Deg 3.8 µg/m3 0.89 µg/m3
2022-01-24 03:00 4.6 µg/m3 0.31 µg/m3 78.67 µg/m3 7.68 µg/m3 3.66 µg/m3 0.14 mg/m3 11.79 °C 50.78 % 1,025.41 mbar 2.46 m/s 44.23 Deg 0.34 µg/m3 0.94 µg/m3
2022-01-24 02:00 12.88 µg/m3 0.25 µg/m3 80.05 µg/m3 8.89 µg/m3 4.27 µg/m3 0.18 mg/m3 11.91 °C 57.56 % 1,025.60 mbar 2.79 m/s 45.8 Deg 3.49 µg/m3 1.19 µg/m3
2022-01-24 01:00 6.28 µg/m3 0.38 µg/m3 84.12 µg/m3 5.98 µg/m3 3.65 µg/m3 0.18 mg/m3 12.1 °C 59.74 % 1,025.66 mbar 3.75 m/s 48.55 Deg 2.31 µg/m3 1.45 µg/m3
2022-01-24 00:00 12.36 µg/m3 0.38 µg/m3 76.8 µg/m3 8.42 µg/m3 4.9 µg/m3 0.21 mg/m3 12.2 °C 60.33 % 1,025.80 mbar 3.75 m/s 122.2 Deg 3.73 µg/m3 2.8 µg/m3
2022-01-23 23:00 45.03 µg/m3 0.45 µg/m3 27.12 µg/m3 29.45 µg/m3 15.83 µg/m3 0.48 mg/m3 11.18 °C 63.33 % 1,025.65 mbar 0.74 m/s 231.62 Deg 5.57 µg/m3 3.54 µg/m3
2022-01-23 22:00 53.01 µg/m3 0.46 µg/m3 22.58 µg/m3 33.03 µg/m3 16.79 µg/m3 0.53 mg/m3 11.28 °C 62.67 % 1,025.75 mbar 0.77 m/s 230.33 Deg 7.35 µg/m3 3.23 µg/m3
2022-01-23 21:00 50.67 µg/m3 0.46 µg/m3 27.88 µg/m3 32.08 µg/m3 14.68 µg/m3 0.51 mg/m3 11.68 °C 60.28 % 1,025.85 mbar 0.78 m/s 228.3 Deg 6.61 µg/m3 4.36 µg/m3
2022-01-23 20:00 59.86 µg/m3 0.56 µg/m3 22.79 µg/m3 33.86 µg/m3 15.55 µg/m3 0.54 mg/m3 11.74 °C 58.08 % 1,025.94 mbar 0.88 m/s 229.1 Deg 11.37 µg/m3 5.3 µg/m3
2022-01-23 19:00 58.31 µg/m3 0.47 µg/m3 30.18 µg/m3 25.7 µg/m3 11.84 µg/m3 0.48 mg/m3 12.12 °C 55.39 % 1,025.98 mbar 1.28 m/s 237.92 Deg 9.53 µg/m3 3.08 µg/m3
2022-01-23 18:00 37.94 µg/m3 0.29 µg/m3 52.32 µg/m3 20.48 µg/m3 10.28 µg/m3 0.36 mg/m3 12.73 °C 54.26 % 1,025.72 mbar 1.21 m/s 269.47 Deg 3.36 µg/m3 1.94 µg/m3
2022-01-23 17:00 26.09 µg/m3 0.32 µg/m3 65.98 µg/m3 15.16 µg/m3 7.17 µg/m3 0.29 mg/m3 13.12 °C 55.19 % 1,025.75 mbar 1.68 m/s 291.35 Deg 3.32 µg/m3 1.4 µg/m3
2022-01-23 16:00 16.59 µg/m3 0.3 µg/m3 72.82 µg/m3 13.52 µg/m3 6.08 µg/m3 0.26 mg/m3 13.49 °C 51.65 % 1,025.89 mbar 2.12 m/s 289.6 Deg 2.93 µg/m3 1.54 µg/m3
2022-01-23 15:00 15.84 µg/m3 0.32 µg/m3 73.59 µg/m3 11.92 µg/m3 4.97 µg/m3 0.24 mg/m3 13.7 °C 50.29 % 1,026.03 mbar 2.1 m/s 289.82 Deg 3.34 µg/m3 3.6 µg/m3
2022-01-23 14:00 16.47 µg/m3 0.36 µg/m3 71.94 µg/m3 10.27 µg/m3 4.22 µg/m3 0.24 mg/m3 13.82 °C 41.47 % 1,026.57 mbar 1.93 m/s 298.57 Deg 6 µg/m3 0.97 µg/m3
2022-01-23 13:00 16.57 µg/m3 0.44 µg/m3 70.16 µg/m3 13.13 µg/m3 3.93 µg/m3 0.28 mg/m3 13.85 °C 38.34 % 1,027.33 mbar 1.57 m/s 255.77 Deg 10.81 µg/m3 2.28 µg/m3
2022-01-23 12:00 24.79 µg/m3 0.57 µg/m3 65.07 µg/m3 27.3 µg/m3 6.46 µg/m3 0.32 mg/m3 13.59 °C 43.11 % 1,027.91 mbar 1.49 m/s 187.05 Deg 18.08 µg/m3 3.55 µg/m3
2022-01-23 11:00 19.52 µg/m3 0.5 µg/m3 65.47 µg/m3 39.5 µg/m3 8.48 µg/m3 0.45 mg/m3 13.17 °C 48.47 % 1,027.88 mbar 1.53 m/s 105.85 Deg 13.29 µg/m3 2.29 µg/m3
2022-01-23 10:00 19.78 µg/m3 0.41 µg/m3 63.78 µg/m3 26.29 µg/m3 6.98 µg/m3 0.3 mg/m3 12.69 °C 52.62 % 1,027.37 mbar 2.22 m/s 40.63 Deg 15.41 µg/m3 2.99 µg/m3
2022-01-23 09:00 17.32 µg/m3 0.36 µg/m3 64.05 µg/m3 17.48 µg/m3 5.68 µg/m3 0.28 mg/m3 12.45 °C 50.08 % 1,026.84 mbar 2.09 m/s 40.77 Deg 12.9 µg/m3 1.4 µg/m3
2022-01-23 08:00 14.37 µg/m3 0.32 µg/m3 66.1 µg/m3 9.19 µg/m3 3.92 µg/m3 0.24 mg/m3 11.7 °C 58.44 % 1,026.28 mbar 2.23 m/s 41.97 Deg 9.55 µg/m3 2.24 µg/m3
2022-01-23 07:00 11.01 µg/m3 0.26 µg/m3 72.45 µg/m3 6.52 µg/m3 3.17 µg/m3 0.23 mg/m3 11.48 °C 57.13 % 1,025.75 mbar 3 m/s 42.85 Deg 4.55 µg/m3 1.34 µg/m3
2022-01-23 06:00 7.61 µg/m3 0.22 µg/m3 71.21 µg/m3 5.87 µg/m3 3.1 µg/m3 0.2 mg/m3 11.62 °C 56.93 % 1,025.19 mbar 3.28 m/s 42.55 Deg 3.09 µg/m3 3.36 µg/m3
2022-01-23 05:00 7.14 µg/m3 0.19 µg/m3 71.18 µg/m3 8.47 µg/m3 3.96 µg/m3 0.19 mg/m3 11.68 °C 61.78 % 1,025.05 mbar 2.34 m/s 41.97 Deg 2.22 µg/m3 1.03 µg/m3
2022-01-23 04:00 9.06 µg/m3 0.3 µg/m3 72.02 µg/m3 11.57 µg/m3 5.04 µg/m3 0.18 mg/m3 11.51 °C 69.19 % 1,025.19 mbar 1.88 m/s 45.27 Deg 3.82 µg/m3 0.94 µg/m3
2022-01-23 03:00 10.06 µg/m3 0.19 µg/m3 72.82 µg/m3 8.96 µg/m3 5.18 µg/m3 0.17 mg/m3 10.84 °C 74.13 % 1,025.44 mbar 2.71 m/s 54 Deg 4.44 µg/m3 0.89 µg/m3
2022-01-23 02:00 6.46 µg/m3 0.22 µg/m3 71.25 µg/m3 7.44 µg/m3 5.22 µg/m3 0.21 mg/m3 10.12 °C 84.7 % 1,025.54 mbar 2.69 m/s 42.07 Deg 2.48 µg/m3 1.03 µg/m3
2022-01-23 01:00 21.16 µg/m3 0.49 µg/m3 49.46 µg/m3 16.01 µg/m3 11.43 µg/m3 0.42 mg/m3 10.42 °C 85.45 % 1,025.09 mbar 1.99 m/s 76 Deg 9.4 µg/m3 5.56 µg/m3
2022-01-23 00:00 57.06 µg/m3 1.17 µg/m3 3.63 µg/m3 55.35 µg/m3 38.08 µg/m3 1.16 mg/m3 10.27 °C 84.37 % 1,024.72 mbar 0.67 m/s 227.17 Deg 50.18 µg/m3 8.06 µg/m3
2022-01-22 23:00 59.53 µg/m3 1.5 µg/m3 4.15 µg/m3 65.6 µg/m3 44.75 µg/m3 1.3 mg/m3 10.46 °C 83.92 % 1,024.36 mbar 0.73 m/s 225.98 Deg 69.45 µg/m3 11.47 µg/m3
2022-01-22 22:00 67.49 µg/m3 1.44 µg/m3 4.64 µg/m3 67.04 µg/m3 45.05 µg/m3 1.34 mg/m3 10.85 °C 83.34 % 1,024.16 mbar 0.5 m/s 232.29 Deg 71.15 µg/m3 10.9 µg/m3
2022-01-22 21:00 71.83 µg/m3 1.06 µg/m3 5.83 µg/m3 46.63 µg/m3 31.24 µg/m3 1.03 mg/m3 11.38 °C 81.46 % 1,023.90 mbar 0.79 m/s 228.59 Deg 51.22 µg/m3 6.61 µg/m3
2022-01-22 20:00 56.66 µg/m3 0.39 µg/m3 23.22 µg/m3 21.79 µg/m3 14.62 µg/m3 0.51 mg/m3 11.98 °C 79.11 % 1,023.60 mbar 0.61 m/s 206.35 Deg 12.49 µg/m3 3.08 µg/m3
2022-01-22 19:00 42.18 µg/m3 0.48 µg/m3 44.69 µg/m3 15.36 µg/m3 10.34 µg/m3 0.44 mg/m3 12.31 °C 78.2 % 1,023.27 mbar 0.96 m/s 93.33 Deg 20.13 µg/m3 2.99 µg/m3
2022-01-22 18:00 31.39 µg/m3 0.46 µg/m3 58.37 µg/m3 21.82 µg/m3 9.45 µg/m3 0.38 mg/m3 12.94 °C 71.08 % 1,022.80 mbar 1.66 m/s 118.62 Deg 22.89 µg/m3 1.78 µg/m3
2022-01-22 17:00 24.95 µg/m3 0.18 µg/m3 61.08 µg/m3 12.96 µg/m3 4.91 µg/m3 0.28 mg/m3 13.44 °C 61.98 % 1,022.58 mbar 1.39 m/s 299.4 Deg 4.35 µg/m3 1.1 µg/m3
2022-01-22 16:00 18.04 µg/m3 0.22 µg/m3 68.84 µg/m3 12.56 µg/m3 4.67 µg/m3 0.27 mg/m3 13.67 °C 62.06 % 1,022.18 mbar 1.97 m/s 311.82 Deg 5.96 µg/m3 1.1 µg/m3
2022-01-22 15:00 19.95 µg/m3 0.23 µg/m3 68.77 µg/m3 14.45 µg/m3 5.09 µg/m3 0.26 mg/m3 13.9 °C 62.02 % 1,021.89 mbar 1.65 m/s 316.18 Deg 7.92 µg/m3 1.29 µg/m3
2022-01-22 14:00 23.32 µg/m3 0.3 µg/m3 66.89 µg/m3 11.94 µg/m3 4.23 µg/m3 0.28 mg/m3 13.71 °C 62.44 % 1,022.07 mbar 1.59 m/s 9.2 Deg 13.31 µg/m3 2.52 µg/m3
2022-01-22 13:00 26.84 µg/m3 0.45 µg/m3 64.25 µg/m3 7.37 µg/m3 3.86 µg/m3 0.32 mg/m3 12.92 °C 69.71 % 1,022.41 mbar 1.61 m/s 20.97 Deg 20.4 µg/m3 1.33 µg/m3
2022-01-22 12:00 49.46 µg/m3 0.47 µg/m3 37.06 µg/m3 10.77 µg/m3 7.27 µg/m3 0.43 mg/m3 12.15 °C 76.71 % 1,022.98 mbar 0.84 m/s 230.88 Deg 22.26 µg/m3 1.99 µg/m3
2022-01-22 11:00 37.37 µg/m3 0.34 µg/m3 46.8 µg/m3 21.24 µg/m3 6.72 µg/m3 0.35 mg/m3 12.49 °C 68.34 % 1,023.03 mbar 2.03 m/s 277.82 Deg 8.26 µg/m3 1.78 µg/m3
2022-01-22 10:00 30.73 µg/m3 0.26 µg/m3 54.97 µg/m3 31.55 µg/m3 8.77 µg/m3 0.29 mg/m3 13.59 °C 63.4 % 1,022.28 mbar 2.53 m/s 285.18 Deg 7.84 µg/m3 1.45 µg/m3
2022-01-22 09:00 44.97 µg/m3 0.34 µg/m3 39.43 µg/m3 35.25 µg/m3 10.25 µg/m3 0.32 mg/m3 13 °C 65.94 % 1,021.65 mbar 1.7 m/s 269.18 Deg 12.22 µg/m3 1.23 µg/m3
2022-01-22 08:00 51.48 µg/m3 0.31 µg/m3 33.73 µg/m3 25.53 µg/m3 9.7 µg/m3 0.31 mg/m3 12.07 °C 68.04 % 1,021.34 mbar 1.61 m/s 265.23 Deg 12.67 µg/m3 1.47 µg/m3
2022-01-22 07:00 39.24 µg/m3 0.21 µg/m3 41.04 µg/m3 16.83 µg/m3 8.09 µg/m3 0.28 mg/m3 11.59 °C 69.03 % 1,021.09 mbar 1.56 m/s 256.35 Deg 5.12 µg/m3 1.52 µg/m3
2022-01-22 06:00 20.34 µg/m3 0.13 µg/m3 57.23 µg/m3 10.28 µg/m3 6.73 µg/m3 0.22 mg/m3 11.34 °C 71.06 % 1,020.78 mbar 1.51 m/s 253.45 Deg 1.67 µg/m3 0.73 µg/m3
2022-01-22 05:00 9.21 µg/m3 0.11 µg/m3 67.65 µg/m3 12.33 µg/m3 6.39 µg/m3 0.16 mg/m3 11.38 °C 69.89 % 1,020.64 mbar 1.58 m/s 256.58 Deg -0.12 µg/m3 0.68 µg/m3
2022-01-22 04:00 7.36 µg/m3 0.06 µg/m3 69.49 µg/m3 13.33 µg/m3 7.07 µg/m3 0.17 mg/m3 11.26 °C 70.64 % 1,020.90 mbar 1.72 m/s 253.3 Deg -0.25 µg/m3 0.65 µg/m3
2022-01-22 03:00 6.01 µg/m3 0.13 µg/m3 68.18 µg/m3 9.67 µg/m3 6.89 µg/m3 0.15 mg/m3 10.85 °C 82.55 % 1,021.35 mbar 1.67 m/s 241.5 Deg -0.37 µg/m3 0.7 µg/m3
2022-01-22 02:00 8.79 µg/m3 0.17 µg/m3 67.93 µg/m3 7.53 µg/m3 5.56 µg/m3 0.19 mg/m3 11.26 °C 79.3 % 1,021.52 mbar 2.32 m/s 249.93 Deg 0.38 µg/m3 0.65 µg/m3
2022-01-22 01:00 17.25 µg/m3 0.2 µg/m3 58.28 µg/m3 6.98 µg/m3 4.91 µg/m3 0.23 mg/m3 11.64 °C 73.97 % 1,021.50 mbar 1.6 m/s 244.6 Deg 0.32 µg/m3 0.87 µg/m3
2022-01-22 00:00 22.46 µg/m3 0.2 µg/m3 54.56 µg/m3 11.68 µg/m3 8.93 µg/m3 0.26 mg/m3 11.6 °C 77.01 % 1,021.87 mbar 1.6 m/s 255.47 Deg 1.17 µg/m3 1.81 µg/m3
2022-01-21 23:00 39.99 µg/m3 0.26 µg/m3 37.75 µg/m3 13.42 µg/m3 9.33 µg/m3 0.38 mg/m3 12.17 °C 72.67 % 1,021.88 mbar 0.96 m/s 252.88 Deg 3.69 µg/m3 2.44 µg/m3
2022-01-21 22:00 55.07 µg/m3 0.28 µg/m3 24.68 µg/m3 16.26 µg/m3 11.6 µg/m3 0.46 mg/m3 12.12 °C 72.49 % 1,021.52 mbar 0.79 m/s 244.35 Deg 7.07 µg/m3 2.5 µg/m3
2022-01-21 21:00 48.59 µg/m3 0.29 µg/m3 37.43 µg/m3 14.47 µg/m3 10.26 µg/m3 0.37 mg/m3 12.36 °C 72.82 % 1,021.48 mbar 1.34 m/s 245.33 Deg 8.19 µg/m3 2.29 µg/m3
2022-01-21 20:00 52.98 µg/m3 0.32 µg/m3 34.69 µg/m3 25.02 µg/m3 10.62 µg/m3 0.44 mg/m3 12.97 °C 67.02 % 1,021.48 mbar 1.33 m/s 240.75 Deg 9.25 µg/m3 2.47 µg/m3
2022-01-21 19:00 60.45 µg/m3 0.38 µg/m3 31.85 µg/m3 27.38 µg/m3 10.81 µg/m3 0.41 mg/m3 13.03 °C 65.61 % 1,021.09 mbar 1.29 m/s 240.77 Deg 9.75 µg/m3 2.52 µg/m3
2022-01-21 18:00 54.57 µg/m3 0.35 µg/m3 42.26 µg/m3 24.37 µg/m3 9.39 µg/m3 0.39 mg/m3 13.22 °C 60.27 % 1,020.58 mbar 1.9 m/s 250.5 Deg 10.09 µg/m3 1.94 µg/m3
2022-01-21 17:00 40.75 µg/m3 0.3 µg/m3 56.38 µg/m3 38.64 µg/m3 10.85 µg/m3 0.33 mg/m3 14.03 °C 59.16 % 1,020.37 mbar 2.36 m/s 254.45 Deg 8.18 µg/m3 1.34 µg/m3
2022-01-21 16:00 30.87 µg/m3 0.21 µg/m3 63.16 µg/m3 35.35 µg/m3 9.39 µg/m3 0.27 mg/m3 14.41 °C 58.38 % 1,020.40 mbar 3.31 m/s 248.15 Deg 7.04 µg/m3 1.61 µg/m3
2022-01-21 15:00 30.36 µg/m3 0.25 µg/m3 66.02 µg/m3 34.02 µg/m3 8.48 µg/m3 0.25 mg/m3 14.86 °C 56.42 % 1,020.49 mbar 3.29 m/s 247.7 Deg 8.29 µg/m3 0.94 µg/m3
2022-01-21 14:00 25.5 µg/m3 0.23 µg/m3 69.09 µg/m3 30.56 µg/m3 8.66 µg/m3 0.23 mg/m3 14.86 °C 55.54 % 1,020.79 mbar 3.67 m/s 246.75 Deg 6.38 µg/m3 2.03 µg/m3
2022-01-21 13:00 24.57 µg/m3 0.22 µg/m3 67.64 µg/m3 24.6 µg/m3 7.72 µg/m3 0.23 mg/m3 14.85 °C 54.09 % 1,021.25 mbar 3.58 m/s 247.22 Deg 7.83 µg/m3 1.08 µg/m3
2022-01-21 12:00 0 µg/m3 0.25 µg/m3 65.4 µg/m3 34.31 µg/m3 9.74 µg/m3 0.25 mg/m3 14.77 °C 56.93 % 1,021.89 mbar 3.08 m/s 245.67 Deg 0 µg/m3 1.33 µg/m3
2022-01-21 11:00 0 µg/m3 0.36 µg/m3 61.2 µg/m3 32.55 µg/m3 9.05 µg/m3 0.25 mg/m3 14.5 °C 56.94 % 1,022.16 mbar 3.02 m/s 245.35 Deg 0 µg/m3 1.75 µg/m3
2022-01-21 10:00 0 µg/m3 0.73 µg/m3 36.14 µg/m3 64.93 µg/m3 16.84 µg/m3 0.42 mg/m3 14.06 °C 60.14 % 1,021.86 mbar 1.67 m/s 232.87 Deg 0 µg/m3 5.88 µg/m3
2022-01-21 09:00 0 µg/m3 2.43 µg/m3 6.57 µg/m3 102.86 µg/m3 35.51 µg/m3 1.12 mg/m3 11.93 °C 70.82 % 1,021.45 mbar 0.55 m/s 217.02 Deg 0 µg/m3 13.67 µg/m3
2022-01-21 08:00 81.06 µg/m3 1.88 µg/m3 3.74 µg/m3 70.98 µg/m3 47.32 µg/m3 2.17 mg/m3 10.33 °C 75.53 % 1,021.48 mbar 0.57 m/s 243.25 Deg 324.25 µg/m3 18.61 µg/m3
2022-01-21 07:00 76.66 µg/m3 3.55 µg/m3 3.13 µg/m3 52.06 µg/m3 34.71 µg/m3 1.58 mg/m3 10.15 °C 75.41 % 1,021.24 mbar 0.68 m/s 238.37 Deg 208.54 µg/m3 10.87 µg/m3
2022-01-21 06:00 59.41 µg/m3 0.98 µg/m3 4.65 µg/m3 28.8 µg/m3 19.37 µg/m3 0.59 mg/m3 10.21 °C 75.01 % 1,021.05 mbar 0.79 m/s 237.45 Deg 52.29 µg/m3 3.7 µg/m3
2022-01-21 05:00 45.55 µg/m3 0.31 µg/m3 15.73 µg/m3 18.84 µg/m3 12.92 µg/m3 0.26 mg/m3 10.83 °C 72.19 % 1,021.16 mbar 0.38 m/s 245.44 Deg 11.16 µg/m3 1.47 µg/m3
2022-01-21 04:00 19.59 µg/m3 0.14 µg/m3 62.45 µg/m3 14.22 µg/m3 9.93 µg/m3 0.21 mg/m3 11.29 °C 68.25 % 1,021.51 mbar 0.51 m/s 246.73 Deg 0.31 µg/m3 1.23 µg/m3
2022-01-21 03:00 20.45 µg/m3 0.22 µg/m3 47.21 µg/m3 17.79 µg/m3 13.24 µg/m3 0.22 mg/m3 11.43 °C 70.22 % 1,022.02 mbar 0.13 m/s 236.09 Deg -0.05 µg/m3 1.47 µg/m3
2022-01-21 02:00 23.82 µg/m3 0.31 µg/m3 49.85 µg/m3 17.81 µg/m3 13.1 µg/m3 0.23 mg/m3 11.42 °C 70.67 % 1,022.20 mbar 0.69 m/s 244.8 Deg 5.96 µg/m3 1.29 µg/m3
2022-01-21 01:00 20.57 µg/m3 0.27 µg/m3 57.73 µg/m3 17.91 µg/m3 13.11 µg/m3 0.26 mg/m3 11.82 °C 71.63 % 1,022.60 mbar 1.04 m/s 235.37 Deg 0.52 µg/m3 2.2 µg/m3
2022-01-21 00:00 56.68 µg/m3 0.81 µg/m3 9.35 µg/m3 45.37 µg/m3 30.76 µg/m3 0.79 mg/m3 11.76 °C 73.58 % 1,023.09 mbar 0.6 m/s 240.57 Deg 25 µg/m3 7.12 µg/m3
2022-01-20 23:00 63.39 µg/m3 1 µg/m3 3.41 µg/m3 51.43 µg/m3 34.38 µg/m3 0.84 mg/m3 11.64 °C 72.99 % 1,023.38 mbar 0.43 m/s 240.28 Deg 44.73 µg/m3 5.46 µg/m3
2022-01-20 22:00 68.98 µg/m3 1.13 µg/m3 3.64 µg/m3 46.78 µg/m3 30.88 µg/m3 0.88 mg/m3 11.82 °C 71.29 % 1,023.51 mbar 0.72 m/s 236.25 Deg 49.47 µg/m3 6.77 µg/m3
2022-01-20 21:00 72.13 µg/m3 0.72 µg/m3 9.58 µg/m3 52.28 µg/m3 24.79 µg/m3 0.72 mg/m3 12.4 °C 67.94 % 1,023.45 mbar 0.71 m/s 230.03 Deg 22.71 µg/m3 4.91 µg/m3
2022-01-20 20:00 66.45 µg/m3 0.53 µg/m3 18.39 µg/m3 47.71 µg/m3 21.73 µg/m3 0.56 mg/m3 12.91 °C 66.67 % 1,023.50 mbar 0.74 m/s 229.18 Deg 10.88 µg/m3 3.97 µg/m3
2022-01-20 19:00 68.97 µg/m3 0.7 µg/m3 13.84 µg/m3 45.05 µg/m3 17.82 µg/m3 0.56 mg/m3 13.44 °C 66.56 % 1,023.44 mbar 0.79 m/s 228.98 Deg 16.03 µg/m3 3.2 µg/m3
2022-01-20 18:00 50.14 µg/m3 0.66 µg/m3 32.82 µg/m3 35.58 µg/m3 12.54 µg/m3 0.4 mg/m3 13.81 °C 63.97 % 1,023.33 mbar 1.31 m/s 234.87 Deg 8.52 µg/m3 2.13 µg/m3
2022-01-20 17:00 42.08 µg/m3 0.84 µg/m3 45.42 µg/m3 29.64 µg/m3 10.48 µg/m3 0.37 mg/m3 14.3 °C 62.8 % 1,023.36 mbar 1.68 m/s 251.35 Deg 10.04 µg/m3 2.05 µg/m3
2022-01-20 16:00 30.12 µg/m3 2.48 µg/m3 57.21 µg/m3 26.23 µg/m3 9.24 µg/m3 0.3 mg/m3 14.62 °C 60.18 % 1,023.46 mbar 1.81 m/s 251.42 Deg 6.94 µg/m3 1.07 µg/m3
2022-01-20 15:00 25.49 µg/m3 0 µg/m3 62.34 µg/m3 27.17 µg/m3 9.59 µg/m3 0.26 mg/m3 15 °C 58.48 % 1,023.82 mbar 1.7 m/s 254.78 Deg 8.6 µg/m3 0.94 µg/m3
2022-01-20 14:00 24.71 µg/m3 0 µg/m3 61.97 µg/m3 26.62 µg/m3 8.38 µg/m3 0.25 mg/m3 14.96 °C 58.5 % 1,024.41 mbar 2.14 m/s 251.42 Deg 6.94 µg/m3 1.03 µg/m3
2022-01-20 13:00 28.89 µg/m3 0 µg/m3 56.62 µg/m3 26.87 µg/m3 9.97 µg/m3 0.29 mg/m3 14.24 °C 66.76 % 1,025.17 mbar 1.84 m/s 252.75 Deg 9.08 µg/m3 1.57 µg/m3
2022-01-20 12:00 33.29 µg/m3 0 µg/m3 50.68 µg/m3 40.99 µg/m3 11.56 µg/m3 0.29 mg/m3 14.53 °C 68.12 % 1,026.13 mbar 1.48 m/s 276.78 Deg 13.25 µg/m3 1.52 µg/m3
2022-01-20 11:00 29.48 µg/m3 0 µg/m3 56.88 µg/m3 20.14 µg/m3 8.12 µg/m3 0.28 mg/m3 14.75 °C 64.87 % 1,026.47 mbar 1.83 m/s 210.23 Deg 12.64 µg/m3 2.47 µg/m3
2022-01-20 10:00 72.07 µg/m3 0 µg/m3 22.04 µg/m3 108.85 µg/m3 32.75 µg/m3 0.71 mg/m3 14.47 °C 70.94 % 1,026.44 mbar 0.61 m/s 185.76 Deg 91.74 µg/m3 8.14 µg/m3
2022-01-20 09:00 78.98 µg/m3 3.55 µg/m3 4.32 µg/m3 68.46 µg/m3 33.96 µg/m3 1.28 mg/m3 12.19 °C 77.68 % 1,026.38 mbar 0.71 m/s 219.44 Deg 164.16 µg/m3 11.13 µg/m3
2022-01-20 08:00 69.39 µg/m3 4.09 µg/m3 2.85 µg/m3 44.88 µg/m3 29.92 µg/m3 1.54 mg/m3 10.92 °C 82.13 % 1,026.61 mbar 0.5 m/s 235.53 Deg 197.48 µg/m3 14.12 µg/m3
2022-01-20 07:00 61.72 µg/m3 2.58 µg/m3 3.15 µg/m3 30.75 µg/m3 20.51 µg/m3 1.11 mg/m3 10.88 °C 82.98 % 1,026.63 mbar 0.59 m/s 235.67 Deg 117.88 µg/m3 6.72 µg/m3
2022-01-20 06:00 43.85 µg/m3 1 µg/m3 12.99 µg/m3 17.01 µg/m3 11.47 µg/m3 0.4 mg/m3 11.02 °C 83.33 % 1,026.51 mbar 0.79 m/s 233.63 Deg 16.48 µg/m3 2.29 µg/m3
2022-01-20 05:00 19.39 µg/m3 0.75 µg/m3 36.63 µg/m3 12.85 µg/m3 9.32 µg/m3 0.26 mg/m3 11.34 °C 82.74 % 1,026.65 mbar 0.88 m/s 242.93 Deg 1.41 µg/m3 1.97 µg/m3
2022-01-20 04:00 16.94 µg/m3 0.77 µg/m3 30.75 µg/m3 17.24 µg/m3 13.26 µg/m3 0.34 mg/m3 11.84 °C 82.03 % 1,027.15 mbar 0.7 m/s 244.55 Deg 0.62 µg/m3 2.52 µg/m3
2022-01-20 03:00 16.37 µg/m3 0.81 µg/m3 32.16 µg/m3 17.05 µg/m3 13.13 µg/m3 0.26 mg/m3 11.6 °C 81.89 % 1,027.65 mbar 0.82 m/s 238.47 Deg 0.21 µg/m3 2.47 µg/m3
2022-01-20 02:00 26.12 µg/m3 0.74 µg/m3 26.21 µg/m3 20.54 µg/m3 15.34 µg/m3 0.36 mg/m3 11.38 °C 81.77 % 1,027.98 mbar 0.85 m/s 240.05 Deg 1.26 µg/m3 2.89 µg/m3
2022-01-20 01:00 40.69 µg/m3 0.89 µg/m3 11.52 µg/m3 28.85 µg/m3 20.46 µg/m3 0.55 mg/m3 11.36 °C 82.82 % 1,028.29 mbar 0.59 m/s 236.77 Deg 5.78 µg/m3 3.96 µg/m3
2022-01-20 00:00 50.64 µg/m3 1.23 µg/m3 6.2 µg/m3 32.97 µg/m3 22.56 µg/m3 0.62 mg/m3 11.62 °C 82.89 % 1,028.66 mbar 0.79 m/s 235.28 Deg 26.58 µg/m3 5.3 µg/m3
2022-01-19 23:00 64.26 µg/m3 1.4 µg/m3 4.06 µg/m3 29.88 µg/m3 20.06 µg/m3 0.68 mg/m3 12.22 °C 80.63 % 1,029.04 mbar 0.52 m/s 249.11 Deg 41.29 µg/m3 3.8 µg/m3
2022-01-19 22:00 36.46 µg/m3 0.87 µg/m3 39.79 µg/m3 16.52 µg/m3 12.59 µg/m3 0.38 mg/m3 12.59 °C 78.95 % 1,029.25 mbar 0.38 m/s 209.61 Deg 4.89 µg/m3 1.92 µg/m3
2022-01-19 21:00 38.48 µg/m3 0.82 µg/m3 39.5 µg/m3 13.98 µg/m3 11.22 µg/m3 0.37 mg/m3 13.01 °C 78.13 % 1,029.37 mbar 0.56 m/s 209.92 Deg 4.6 µg/m3 3.57 µg/m3
2022-01-19 20:00 57.89 µg/m3 0.96 µg/m3 24.38 µg/m3 16.13 µg/m3 12.88 µg/m3 0.47 mg/m3 13.23 °C 78.16 % 1,029.28 mbar 0.38 m/s 205.53 Deg 11.65 µg/m3 3.54 µg/m3
2022-01-19 19:00 75.16 µg/m3 1.32 µg/m3 11.14 µg/m3 13.9 µg/m3 11.28 µg/m3 0.46 mg/m3 12.92 °C 81.12 % 1,029.37 mbar 0.76 m/s 111 Deg 38.55 µg/m3 2.2 µg/m3
2022-01-19 18:00 39.71 µg/m3 1.15 µg/m3 50.96 µg/m3 13.4 µg/m3 9.75 µg/m3 0.42 mg/m3 13.26 °C 75.65 % 1,029.15 mbar 2.46 m/s 76.72 Deg 30.61 µg/m3 1.54 µg/m3
2022-01-19 17:00 39.29 µg/m3 1.24 µg/m3 51.53 µg/m3 20.84 µg/m3 10.81 µg/m3 0.43 mg/m3 14.68 °C 62.7 % 1,028.81 mbar 2.49 m/s 116.83 Deg 36.04 µg/m3 2.05 µg/m3
2022-01-19 16:00 29.24 µg/m3 1.13 µg/m3 60.07 µg/m3 20.25 µg/m3 9.14 µg/m3 0.32 mg/m3 15.17 °C 60.17 % 1,028.90 mbar 2.01 m/s 140.67 Deg 28.08 µg/m3 1.52 µg/m3
2022-01-19 15:00 32.22 µg/m3 1.11 µg/m3 60.17 µg/m3 28.13 µg/m3 9.59 µg/m3 0.5 mg/m3 15.51 °C 59.34 % 1,029.19 mbar 1.68 m/s 148.07 Deg 23.97 µg/m3 1.57 µg/m3
2022-01-19 14:00 34.34 µg/m3 1.29 µg/m3 54.23 µg/m3 37.18 µg/m3 11.8 µg/m3 0.36 mg/m3 15.23 °C 53.63 % 1,029.54 mbar 1.79 m/s 177.8 Deg 34.11 µg/m3 1.45 µg/m3
2022-01-19 13:00 39.18 µg/m3 1.32 µg/m3 57.02 µg/m3 49.82 µg/m3 12.11 µg/m3 0.39 mg/m3 15.11 °C 50.48 % 1,030.40 mbar 2.02 m/s 89.13 Deg 37.21 µg/m3 1.63 µg/m3
2022-01-19 12:00 42.75 µg/m3 1.35 µg/m3 51.95 µg/m3 21.96 µg/m3 8.77 µg/m3 0.38 mg/m3 14.88 °C 55.22 % 1,030.97 mbar 1.65 m/s 139.3 Deg 31.83 µg/m3 1.31 µg/m3
2022-01-19 11:00 45.32 µg/m3 1.7 µg/m3 45.96 µg/m3 28.05 µg/m3 11.42 µg/m3 0.4 mg/m3 14.42 °C 61.44 % 1,031.25 mbar 1.85 m/s 66.07 Deg 48.88 µg/m3 3.29 µg/m3
2022-01-19 10:00 83.38 µg/m3 2.49 µg/m3 7.55 µg/m3 67.35 µg/m3 24.46 µg/m3 0.67 mg/m3 13.82 °C 68.68 % 1,031.23 mbar 0.55 m/s 59.48 Deg 99.32 µg/m3 8.08 µg/m3
2022-01-19 09:00 83.77 µg/m3 2.74 µg/m3 4.31 µg/m3 102.11 µg/m3 32.34 µg/m3 1.03 mg/m3 13.03 °C 71.63 % 1,030.75 mbar 0.42 m/s 179.81 Deg 105.76 µg/m3 19.42 µg/m3
2022-01-19 08:00 81.85 µg/m3 3.9 µg/m3 6.64 µg/m3 51.29 µg/m3 34.22 µg/m3 1.42 mg/m3 12.73 °C 74.28 % 1,030.47 mbar 0.56 m/s 210.56 Deg 186.46 µg/m3 10.74 µg/m3
2022-01-19 07:00 60.04 µg/m3 2.68 µg/m3 2.74 µg/m3 35.64 µg/m3 23.77 µg/m3 1.11 mg/m3 12.24 °C 74.27 % 1,030.00 mbar 0.28 m/s 290.37 Deg 115.94 µg/m3 5.54 µg/m3
2022-01-19 06:00 41.21 µg/m3 1.17 µg/m3 11.62 µg/m3 22.78 µg/m3 15.81 µg/m3 0.47 mg/m3 12.05 °C 73.9 % 1,029.73 mbar 0.37 m/s 196.33 Deg 24.89 µg/m3 2.91 µg/m3
2022-01-19 05:00 21.46 µg/m3 0.84 µg/m3 27.99 µg/m3 14.38 µg/m3 10.55 µg/m3 0.24 mg/m3 11.86 °C 73.34 % 1,029.67 mbar 0.52 m/s 232.93 Deg 1.33 µg/m3 1.84 µg/m3
2022-01-19 04:00 17.3 µg/m3 0.81 µg/m3 36.28 µg/m3 16.21 µg/m3 12.58 µg/m3 0.28 mg/m3 11.76 °C 72.86 % 1,029.88 mbar 0.59 m/s 232 Deg 0.91 µg/m3 2.78 µg/m3
2022-01-19 03:00 11.64 µg/m3 0.77 µg/m3 43.53 µg/m3 12.69 µg/m3 9.74 µg/m3 0.23 mg/m3 11.47 °C 72.75 % 1,030.05 mbar 0.84 m/s 230.28 Deg 0 µg/m3 1.47 µg/m3
2022-01-19 02:00 16.89 µg/m3 0.81 µg/m3 42.49 µg/m3 12.88 µg/m3 9.65 µg/m3 0.24 mg/m3 11.32 °C 72.7 % 1,030.22 mbar 1 m/s 228.77 Deg 4.96 µg/m3 1.52 µg/m3
2022-01-19 01:00 25.79 µg/m3 0.86 µg/m3 32.08 µg/m3 17.85 µg/m3 12.88 µg/m3 0.34 mg/m3 11.41 °C 72.45 % 1,030.42 mbar 1.14 m/s 224.73 Deg 0.88 µg/m3 2.2 µg/m3
2022-01-19 00:00 36.38 µg/m3 0.94 µg/m3 25.01 µg/m3 26.43 µg/m3 17.33 µg/m3 0.42 mg/m3 11.4 °C 72.27 % 1,030.60 mbar 0.97 m/s 227.83 Deg 2.16 µg/m3 3.62 µg/m3
2022-01-18 23:00 44.85 µg/m3 1.02 µg/m3 18.05 µg/m3 33.54 µg/m3 23.8 µg/m3 0.5 mg/m3 11.12 °C 74.16 % 1,030.98 mbar 1.12 m/s 229.7 Deg 7.77 µg/m3 4.67 µg/m3
2022-01-18 22:00 60.16 µg/m3 1.47 µg/m3 5.85 µg/m3 51.81 µg/m3 35.51 µg/m3 0.81 mg/m3 11.25 °C 74.81 % 1,030.80 mbar 1.13 m/s 227.75 Deg 32.04 µg/m3 8.98 µg/m3
2022-01-18 21:00 68.23 µg/m3 2.14 µg/m3 4.64 µg/m3 60 µg/m3 40.06 µg/m3 1.11 mg/m3 11.78 °C 73.51 % 1,030.74 mbar 0.91 m/s 230.85 Deg 76.39 µg/m3 10 µg/m3
2022-01-18 20:00 76.5 µg/m3 2.08 µg/m3 4.04 µg/m3 67.92 µg/m3 33.88 µg/m3 1.06 mg/m3 12.45 °C 70.73 % 1,030.45 mbar 0.97 m/s 234.5 Deg 77.01 µg/m3 7.54 µg/m3
2022-01-18 19:00 82.78 µg/m3 1.44 µg/m3 6.43 µg/m3 56.86 µg/m3 21.59 µg/m3 0.7 mg/m3 13.27 °C 65.44 % 1,030.04 mbar 0.62 m/s 231.33 Deg 45.08 µg/m3 4.78 µg/m3
2022-01-18 18:00 62.06 µg/m3 0.91 µg/m3 28.13 µg/m3 33.51 µg/m3 12.06 µg/m3 0.48 mg/m3 13.74 °C 62.44 % 1,029.41 mbar 0.88 m/s 261.52 Deg 13.86 µg/m3 1.81 µg/m3
2022-01-18 17:00 24 µg/m3 0.75 µg/m3 69.37 µg/m3 20.83 µg/m3 8.74 µg/m3 0.26 mg/m3 14.39 °C 58.67 % 1,028.95 mbar 1.79 m/s 308.03 Deg 5.54 µg/m3 1.23 µg/m3
2022-01-18 16:00 25.57 µg/m3 0.85 µg/m3 66.17 µg/m3 32.86 µg/m3 10.58 µg/m3 0.28 mg/m3 14.99 °C 55.77 % 1,028.76 mbar 1.75 m/s 311.4 Deg 11.46 µg/m3 1.21 µg/m3
2022-01-18 15:00 25.12 µg/m3 0.81 µg/m3 67.69 µg/m3 29.82 µg/m3 10.03 µg/m3 0.28 mg/m3 15.18 °C 56.03 % 1,028.54 mbar 1.83 m/s 308.4 Deg 9.51 µg/m3 1.19 µg/m3
2022-01-18 14:00 21.36 µg/m3 0.81 µg/m3 70.07 µg/m3 33.37 µg/m3 10.62 µg/m3 0.25 mg/m3 15.22 °C 55.16 % 1,028.64 mbar 1.95 m/s 299.77 Deg 8.15 µg/m3 1.1 µg/m3
2022-01-18 13:00 22.66 µg/m3 0.88 µg/m3 69.14 µg/m3 18.62 µg/m3 8.43 µg/m3 0.3 mg/m3 15.04 °C 57.29 % 1,029.05 mbar 2.13 m/s 237.9 Deg 14.63 µg/m3 1.63 µg/m3
2022-01-18 12:00 27.98 µg/m3 0.85 µg/m3 62.02 µg/m3 31.14 µg/m3 10.59 µg/m3 0.29 mg/m3 15.1 °C 59.14 % 1,029.42 mbar 1.84 m/s 303.43 Deg 11.61 µg/m3 1.21 µg/m3
2022-01-18 11:00 29.98 µg/m3 0.86 µg/m3 56.51 µg/m3 39.07 µg/m3 11.53 µg/m3 0.29 mg/m3 15.18 °C 59.94 % 1,029.40 mbar 1.83 m/s 281.7 Deg 12.32 µg/m3 1.57 µg/m3
2022-01-18 10:00 59.72 µg/m3 1.31 µg/m3 25.57 µg/m3 86.8 µg/m3 20.97 µg/m3 0.46 mg/m3 13.91 °C 67.1 % 1,028.70 mbar 1.13 m/s 264.67 Deg 35.67 µg/m3 4.41 µg/m3
2022-01-18 09:00 70.09 µg/m3 1.36 µg/m3 15.19 µg/m3 72.39 µg/m3 19.74 µg/m3 0.54 mg/m3 12.95 °C 70.54 % 1,028.03 mbar 1.64 m/s 260.27 Deg 42.92 µg/m3 4.55 µg/m3
2022-01-18 08:00 73.46 µg/m3 1.49 µg/m3 12.06 µg/m3 71.27 µg/m3 18.86 µg/m3 0.61 mg/m3 12.76 °C 70.59 % 1,027.50 mbar 1.45 m/s 260.17 Deg 55.34 µg/m3 3.52 µg/m3
2022-01-18 07:00 44.76 µg/m3 0.9 µg/m3 38.17 µg/m3 20.43 µg/m3 9.41 µg/m3 0.4 mg/m3 12.86 °C 70.44 % 1,026.98 mbar 1.57 m/s 273.82 Deg 15.57 µg/m3 1.44 µg/m3
2022-01-18 06:00 20.37 µg/m3 0.7 µg/m3 59.4 µg/m3 13.77 µg/m3 7.92 µg/m3 0.23 mg/m3 12.56 °C 70.99 % 1,026.41 mbar 1.56 m/s 279.23 Deg 2 µg/m3 0.91 µg/m3
2022-01-18 05:00 13.85 µg/m3 0.69 µg/m3 56.29 µg/m3 10.05 µg/m3 7.12 µg/m3 0.18 mg/m3 11.48 °C 75.32 % 1,026.10 mbar 1.25 m/s 249.35 Deg 1.04 µg/m3 0.84 µg/m3
2022-01-18 04:00 7.49 µg/m3 0.71 µg/m3 64.78 µg/m3 9.93 µg/m3 6.8 µg/m3 0.17 mg/m3 11.68 °C 73.59 % 1,026.20 mbar 1.23 m/s 247.02 Deg -0.07 µg/m3 0.76 µg/m3
2022-01-18 03:00 7.92 µg/m3 0.62 µg/m3 65.03 µg/m3 10.14 µg/m3 7.07 µg/m3 0.15 mg/m3 11.94 °C 75.05 % 1,026.12 mbar 1.2 m/s 245.78 Deg 0.11 µg/m3 0.73 µg/m3
2022-01-18 02:00 11.02 µg/m3 0.65 µg/m3 63.85 µg/m3 11 µg/m3 7.63 µg/m3 0.18 mg/m3 12.37 °C 74.74 % 1,026.08 mbar 1.08 m/s 240.8 Deg 1.1 µg/m3 0.92 µg/m3
2022-01-18 01:00 8.65 µg/m3 0.61 µg/m3 67.41 µg/m3 12.92 µg/m3 9.11 µg/m3 0.2 mg/m3 12.62 °C 75.53 % 1,025.98 mbar 1.38 m/s 247.38 Deg 0.18 µg/m3 1.05 µg/m3
2022-01-18 00:00 15.64 µg/m3 0.65 µg/m3 58.9 µg/m3 12.42 µg/m3 8.61 µg/m3 0.24 mg/m3 12.93 °C 77.15 % 1,025.97 mbar 1.21 m/s 251.37 Deg 0.87 µg/m3 1.08 µg/m3
2022-01-17 23:00 17.98 µg/m3 0.68 µg/m3 58.27 µg/m3 12.7 µg/m3 8.62 µg/m3 0.26 mg/m3 12.97 °C 74.67 % 1,025.91 mbar 1.14 m/s 247.67 Deg 1.02 µg/m3 1.21 µg/m3
2022-01-17 22:00 18.78 µg/m3 0.74 µg/m3 61.08 µg/m3 14.16 µg/m3 9.51 µg/m3 0.26 mg/m3 13.01 °C 72.6 % 1,025.89 mbar 1.42 m/s 258.6 Deg 1.15 µg/m3 1.4 µg/m3
2022-01-17 21:00 23.13 µg/m3 0.75 µg/m3 58.9 µg/m3 19.43 µg/m3 10.84 µg/m3 0.29 mg/m3 13.44 °C 71.87 % 1,025.86 mbar 1.73 m/s 266.32 Deg 2.07 µg/m3 1.4 µg/m3
2022-01-17 20:00 29.61 µg/m3 0.74 µg/m3 54.95 µg/m3 24.83 µg/m3 11.98 µg/m3 0.31 mg/m3 13.41 °C 70.12 % 1,025.38 mbar 1.93 m/s 257.78 Deg 4.12 µg/m3 1.91 µg/m3
2022-01-17 19:00 36.37 µg/m3 0.73 µg/m3 51.11 µg/m3 26.04 µg/m3 12.85 µg/m3 0.33 mg/m3 13.49 °C 69.25 % 1,025.16 mbar 1.89 m/s 258.93 Deg 5.24 µg/m3 1.65 µg/m3

It is to be noted that the data is provisional and subject to quality assurance procedures. For validated data kindly refer your request to contact.air@era.org.mt